Weather History for Port Hope, MI

Change the Weather History Date:

Friday, September 21, 2012

  Actual Average Record
Temperature  
Mean Temperature 58 °F -  
Max Temperature 66 °F 68 °F 87 °F (2010)
Min Temperature 50 °F 51 °F 39 °F (1999)
Degree Days  
Heating Degree Days 7    
Growing Degree Days 8 (Base 50)    
Moisture  
Dew Point 44 °F    
Average Humidity 65    
Maximum Humidity 89    
Minimum Humidity 36    
Precipitation  
Precipitation 0.04 in - - ()
Sea Level Pressure  
Sea Level Pressure 29.84 in    
Wind  
Wind Speed 5 mph (SW)    
Max Wind Speed 10 mph    
Max Gust Speed 18 mph    
Averages and records for this station are not official NWS values.
T = Trace of Precipitation, MM = Missing Value Source: NWS Daily Summary

Daily Weather History Graph

Daily Weather History Graph

Search for Another Location

Airport:

Trip Planner

Search our weather history database for the weather conditions in past years. The results will help you decide how hot, cold, wet, or windy it might be!

Date:

Astronomy

Sep. 21, 2012 Rise Set
Actual Time 7:17 AM EDT 7:29 PM EDT
Civil Twilight 6:48 AM EDT 7:58 PM EDT
Nautical Twilight 6:15 AM EDT 8:32 PM EDT
Astronomical Twilight 5:40 AM EDT 9:06 PM EDT
Moon 1:50 PM EDT (9/21) 11:16 PM EDT (9/21)
Length of Visible Light 13h 09m
Length of Day
12h 11m
Waxing Crescent, 37% of the Moon is Illuminated
Sep 21
Waxing Crescent
Sep 22
First Quarter
Sep 29
Full
Oct 8
Last Quarter
Oct 15
New

Hourly Weather History & Observations

Time (EDT) Temp. Dew Point Humidity Pressure Visibility Wind Dir Wind Speed Gust Speed Precip Events Conditions
12:51 AM 53.1 °F 43.0 °F 69% 29.85 in - SW 4.6 mph - N/A   Unknown
1:51 AM 53.1 °F 43.0 °F 69% 29.85 in - Variable 3.5 mph - N/A   Unknown
2:51 AM 52.0 °F 43.0 °F 71% 29.86 in - WSW 8.1 mph - N/A   Unknown
3:51 AM 50.0 °F 43.0 °F 77% 29.87 in - SW 3.5 mph - N/A   Unknown
4:51 AM 50.0 °F 43.0 °F 77% 29.86 in - SW 5.8 mph - N/A   Unknown
5:51 AM 50.0 °F 43.0 °F 77% 29.87 in - SW 5.8 mph - N/A   Unknown
6:51 AM 50.0 °F 44.1 °F 80% 29.88 in - SW 4.6 mph - N/A   Unknown
7:51 AM 50.0 °F 44.1 °F 80% 29.88 in - SW 5.8 mph - N/A   Unknown
8:51 AM 52.0 °F 45.0 °F 77% 29.89 in - WSW 3.5 mph - N/A   Unknown
9:51 AM 55.9 °F 46.0 °F 69% 29.89 in - Variable 4.6 mph - N/A   Unknown
10:51 AM 60.1 °F 44.1 °F 55% 29.89 in - SW 4.6 mph - N/A   Unknown
11:51 AM 62.1 °F 44.1 °F 52% 29.88 in - Variable 4.6 mph - N/A   Unknown
12:51 PM 62.1 °F 42.1 °F 48% 29.86 in - SW 8.1 mph - N/A   Unknown
1:51 PM 64.9 °F 39.0 °F 39% 29.84 in - SSW 10.4 mph 18.4 mph N/A   Unknown
2:51 PM 66.0 °F 37.9 °F 36% 29.83 in - SW 6.9 mph - N/A   Unknown
3:51 PM 66.0 °F 39.0 °F 37% 29.81 in - Variable 6.9 mph - N/A   Unknown
4:51 PM 63.0 °F 41.0 °F 45% 29.81 in - Calm Calm - N/A   Unknown
5:51 PM 63.0 °F 41.0 °F 45% 29.80 in - Calm Calm - N/A   Unknown
6:51 PM 60.1 °F 45.0 °F 57% 29.81 in - West 4.6 mph - N/A   Unknown
7:51 PM 57.0 °F 46.0 °F 67% 29.81 in - WSW 3.5 mph - N/A   Unknown
8:51 PM 55.0 °F 46.9 °F 74% 29.81 in - Variable 6.9 mph - 0.01 in   Unknown
9:51 PM 53.1 °F 48.0 °F 83% 29.82 in - Variable 6.9 mph - 0.01 in   Unknown
10:51 PM 52.0 °F 48.0 °F 86% 29.80 in - Variable 4.6 mph - 0.01 in   Unknown
11:51 PM 51.1 °F 48.0 °F 89% 29.77 in - Variable 5.8 mph - 0.01 in   Unknown